Погода в Уюке

Погода в Уюке : погода сейчас, прогноз погоды и архив. Всё, что Вы хотите узнать о погоде в Уюке!

Поиск расширенной информации на нашем сайте:

Другие новости

Новости СМИ2

Главная страница сайта

Новости сайта

03.07.2017

Напоминаем, что на нашем специализированном сайте Метеоцентр.Азия вы можете получить высокодетализированные автоматические прогнозы погоды по пунктам России, СНГ и мира в авиационном формате (включающие направление и скорость ветра, видимость, явления погоды, количество и форму облачности, нижнюю и верхнюю границу облачности).

Рекомендуем: мольберт детский

Погода в Уюке - сегодня

Время (UTC), дата Ветер
(°,м/с) 
Видим.   Явления Облачность Т
(°С)
Тd
(°С)
f(%) Тe
(°С)
Pmin
(гПа)
dP
(гПа)
Po
(мм)
O2
(г/м3)
Тmin Tmax R s Состояние
почвы
09 16.08.17 320 (СЗ) 20000 м    8/0 средняя, верхняя 
[Ac lent|Ci sp]
+28.4 +4.6 22 +28  1008  -0.4  725  264           
12 16.08.17 340 (С) 20000 м    9/9 600 м кучево-дожд. 
[Cb cap]
+25 +5.9 29 +25  1008.9  0.5  725  267           
21 16.08.17 тихо ()   20000 м    3/0 верхняя 
[Ci sp]
+16.5 +5.5 48 +17  1010.8  0.2  726  275           
00 17.08.17 150 (ЮВ) 20000 м    4/0 верхняя 
[Ci sp]
+13.7 +4.1 52 +14  1012.2  0.9  726  278           
06 17.08.17 060 (СВ) 20000 м    3/0 средняя 
[Ac trans]
+26.4 +7 29 +26  1012.8  728  266           
09 17.08.17 020 (С) 20000 м    3/3 1000 м 
[Cu hum]
+27.9 +7.1 27 +28  1012.7  0.1  728  265           
12 17.08.17 050 (СВ) 20000 м    3/3 600 м 
[Cu med, cong]
+28.6 +6.7 25 +29  1013.5  0.8  729  265           
15 17.08.17 040 (СВ) 20000 м    3/0 средняя 
[Ac lent]
+24.8 +6.8 32 +25  1015.2  1.2  730  268    +29.1       
18 17.08.17 090 (В) 20000 м    3/0 верхняя 
[Ci sp]
+21.5 +8.4 43 +22  1017  1.2  731  271    +29.1       
21 17.08.17 110 (В) 20000 м    1/0 верхняя 
[Ci sp]
+18.8 +7.4 47 +19  1018.1  0.7  731  274           
00 18.08.17 100 (В) 20000 м    ясно 
+15.9 +6.7 54 +17  1017.9  -0.7  731  277           
06 18.08.17 080 (В) 20000 м    4/0 верхняя 
[Ci fib]
+25.8 +1.5 20 +26  1016.6  -0.4  731  269           
09 18.08.17 090 (В) 20000 м    3/0 верхняя 
[Ci sp]
+28 +1.7 18 +28  1014.7  -1.5  730  266           
12 18.08.17 070 (В) 20000 м    3/0 верхняя 
[Ci sp]
+28.6 +1.5 17 +29  1013.7  -1  729  266           
15 18.08.17 тихо ()   20000 м    3/0 верхняя 
[Ci sp]
+25 +3.8 25 +25  1014  -0.1  729  268    +29.3       
18 18.08.17 100 (В) 20000 м    ясно 
+21.1 +7.1 40 +21  1014.5  -0.1  729  271    +29.3       
21 18.08.17 070 (В) 20000 м    ясно 
+17.9 +7 49 +19  1014.1  -0.8  728  274           
00 19.08.17 100 (В) 20000 м    8/0 верхняя 
[Ci sp]
+17.3 +7.6 53 +19  1014.6  0.3  728  275           
06 19.08.17 080 (В) 20000 м    3/0 верхняя 
[Ci sp]
+27.5 +2.9 20 +28  1014.1  -0.4  729  266           
09 19.08.17 110 (В) 20000 м    1/0 верхняя 
[Ci sp]
+29.4 -0.7 14 +29  1012.7  -1  728  265           
12 19.08.17 090 (В) 20000 м    3/0 верхняя 
[Ci sp]
+30 +0.9 15 +30  1012.8  0.2  728  264           
15 19.08.17 040 (СВ) 20000 м    3/0 верхняя 
[Ci sp]
+26 +5.6 27 +26  1014.3  0.9  729  267    +30.5       
18 19.08.17 090 (В) 20000 м    3/0 верхняя 
[Ci sp]
+22.8 +7.6 38 +23  1015  0.3  729  270    +30.5       
21 19.08.17 100 (В) 20000 м    3/0 верхняя 
[Ci sp]
+19.9 +7.7 45 +21  1015.7  0.2  730  273           
00 20.08.17 080 (В) 20000 м    4/0 верхняя 
[Ci sp]
+17.2 +8 55 +19  1015.6  -0.5  729  275           
Время (UTC), дата Ветер
(°,м/с) 
Видим.   Явления Облачность Т
(°С)
Тd
(°С)
f(%) Тe
(°С)
Pmin
(гПа)
dP
(гПа)
Po
(мм)
O2
(г/м3)
Тmin Tmax R s Состояние
почвы

Для получения пояснительной информации подведите курсор к названию столбца.

ПОГОДА в Уюке - архив

Всё, что Вы хотите узнать о погоде в Уюке - удобно и подробно!

Выберите нужную дату (начиная с 1 января 2015* года) и нажмите кнопку "Найти".
Будут отображены архивные сводки погоды по пункту Уюк, начиная с указанной даты.


Отображать данные в формате CSV (для использования в таблицах Excel)


Внимание! Наш архив погоды предназначен исключительно для личного некоммерческого использования в познавательных целях. Если Вам необходимы официальные справки о состоянии погоды (для производственных, юридических, коммерческих и т.п. целей), обращайтесь в органы Росгидромета.

*Примечание: данная дата относится к архиву по метеостанциям СССР (Россия, СНГ, Балтия).
Архив по метеостанциям Зарубежной Европы и Азии (кроме Китая) хранится 10 дней, по другим регионам земного шара (Китай, Африка, Америка, Австралия, Океания) - 1 день.

Уюк - район местоположения метеостанции


Название, широта, долгота, высота метеостанции:
Уюк 43.8°ш. 70.9°д. 366 м над ур. моря [Казахстан]

Дополнительная информация

В oтличие oт бoльшинства пoгoдных сайтoв мы публикуем пoдрoбную метеoинфoрмацию в детальнoм прoфессиoнальнoм фoрмате.

Характеристики температуры и влажнoсти вoздуха измеряются на высoте 2 м в тени вдали oт зданий и деревьев.
Скoрoсть ветра измеряется на высoте 10 м (на урoвне рoста челoвека скoрoсть ветра ниже в 1.5-2 раза). Если метеoстанция нахoдится в гoрoде или в лесу, тo скoрoсть ветра занижена на 2-4 м/с пo сравнению с oткрытым местoм. Скoрoсть ветра над акватoриями крупных рек и oзёр, а также на вершинах хoлмoв на 2-5 м/с выше, чем в oбычных услoвиях.
Атмoсфернoе давление в разных тoчках местнoсти мoжет значительнo oтличаться oт давления на метеoстанции, в зависимoсти oт услoвий рельефа (при пoдъёме на 10 м давление пoнижается примернo на 1 мм рт.ст.).